• Em Portugal
  • Lista de países
  • Para 7 dias
  • Temperatura da água
  • Mapas de satélite
  • Mapa do tempo
  • Widgets de tempo
  • user-avatar
    Iniciar Sessão

    Previsão horária em Jalalabad

    Hoje, 25 Setembro, Segunda-feira

    Tempo Temperatura Precipitação Vento Pressão Humidade
    00:00 +28°C° 0 mm 1 m/s 708 mmHg 34%
    01:00 +27°C° 0 mm 1 m/s 708 mmHg 34%
    02:00 +27°C° 0 mm 2 m/s 707 mmHg 34%
    03:00 +26°C° 0 mm 2 m/s 707 mmHg 34%
    04:00 +26°C° 0 mm 2 m/s 707 mmHg 33%
    05:00 +25°C° 0 mm 2 m/s 707 mmHg 33%
    06:00 +26°C° 0 mm 2 m/s 707 mmHg 29%
    07:00 +28°C° 0 mm 2 m/s 708 mmHg 25%
    08:00 +29°C° 0 mm 2 m/s 708 mmHg 21%
    09:00 +30°C° 0 mm 2 m/s 708 mmHg 18%
    10:00 +31°C° 0 mm 2 m/s 708 mmHg 16%
    11:00 +34°C° 0 mm 3 m/s 708 mmHg 13%
    12:00 +34°C° 0 mm 2 m/s 708 mmHg 12%
    13:00 +35°C° 0 mm 2 m/s 707 mmHg 11%
    14:00 +36°C° 0 mm 2 m/s 707 mmHg 10%
    15:00 +36°C° 0 mm 2 m/s 707 mmHg 10%
    16:00 +36°C° 0 mm 2 m/s 707 mmHg 10%
    17:00 +35°C° 0 mm 2 m/s 707 mmHg 10%
    18:00 +32°C° 0 mm 1 m/s 707 mmHg 13%
    19:00 +30°C° 0 mm 1 m/s 707 mmHg 16%
    20:00 +29°C° 0 mm 1 m/s 707 mmHg 19%
    21:00 +28°C° 0 mm 1 m/s 707 mmHg 19%
    22:00 +28°C° 0 mm 2 m/s 707 mmHg 18%
    23:00 +27°C° 0 mm 2 m/s 708 mmHg 18%

    Amanhã, 26 Setembro, Terça-feira

    Tempo Temperatura Precipitação Vento Pressão Humidade
    00:00 +27°C° 0 mm 2 m/s 707 mmHg 18%
    01:00 +26°C° 0 mm 2 m/s 707 mmHg 18%
    02:00 +25°C° 0 mm 2 m/s 707 mmHg 18%
    03:00 +25°C° 0 mm 2 m/s 707 mmHg 18%
    04:00 +24°C° 0 mm 2 m/s 707 mmHg 19%
    05:00 +24°C° 0 mm 2 m/s 707 mmHg 19%
    06:00 +25°C° 0 mm 2 m/s 707 mmHg 17%
    07:00 +27°C° 0 mm 2 m/s 708 mmHg 16%
    08:00 +29°C° 0 mm 2 m/s 708 mmHg 14%
    09:00 +30°C° 0 mm 2 m/s 708 mmHg 13%
    10:00 +31°C° 0 mm 2 m/s 708 mmHg 11%
    11:00 +34°C° 0 mm 2 m/s 708 mmHg 10%
    12:00 +34°C° 0 mm 2 m/s 708 mmHg 10%
    13:00 +35°C° 0 mm 2 m/s 708 mmHg 9%
    14:00 +36°C° 0 mm 2 m/s 708 mmHg 9%
    15:00 +36°C° 0 mm 2 m/s 707 mmHg 9%
    16:00 +35°C° 0 mm 2 m/s 707 mmHg 9%
    17:00 +35°C° 0 mm 2 m/s 707 mmHg 9%
    18:00 +32°C° 0 mm 1 m/s 707 mmHg 12%
    19:00 +30°C° 0 mm 1 m/s 708 mmHg 15%
    20:00 +28°C° 0 mm 1 m/s 708 mmHg 18%
    21:00 +27°C° 0 mm 1 m/s 708 mmHg 18%
    22:00 +27°C° 0 mm 1 m/s 708 mmHg 18%
    23:00 +26°C° 0 mm 1 m/s 708 mmHg 18%

    Depois de amanhã, 27 Setembro, Quarta-feira

    Tempo Temperatura Precipitação Vento Pressão Humidade
    00:00 +26°C° 0 mm 1 m/s 708 mmHg 18%
    01:00 +26°C° 0 mm 1 m/s 708 mmHg 19%
    02:00 +25°C° 0 mm 1 m/s 707 mmHg 19%
    03:00 +25°C° 0 mm 1 m/s 707 mmHg 19%
    04:00 +25°C° 0 mm 1 m/s 707 mmHg 19%
    05:00 +24°C° 0 mm 1 m/s 707 mmHg 19%
    06:00 +26°C° 0 mm 1 m/s 708 mmHg 17%
    07:00 +28°C° 0 mm 1 m/s 708 mmHg 15%
    08:00 +30°C° 0 mm 1 m/s 709 mmHg 13%
    09:00 +31°C° 0 mm 2 m/s 709 mmHg 12%
    10:00 +32°C° 0 mm 2 m/s 709 mmHg 10%
    11:00 +35°C° 0 mm 2 m/s 709 mmHg 9%
    12:00 +35°C° 0 mm 2 m/s 709 mmHg 9%
    13:00 +36°C° 0 mm 2 m/s 708 mmHg 8%
    14:00 +37°C° 0 mm 2 m/s 708 mmHg 8%
    15:00 +37°C° 0 mm 2 m/s 708 mmHg 8%
    16:00 +36°C° 0 mm 2 m/s 707 mmHg 8%
    17:00 +36°C° 0 mm 2 m/s 707 mmHg 9%
    18:00 +33°C° 0 mm 1 m/s 707 mmHg 12%
    19:00 +31°C° 0 mm 1 m/s 708 mmHg 15%
    20:00 +27°C° 0 mm 0 m/s 708 mmHg 18%
    21:00 +28°C° 0 mm 1 m/s 708 mmHg 17%
    22:00 +28°C° 0 mm 1 m/s 708 mmHg 17%
    23:00 +28°C° 0 mm 2 m/s 708 mmHg 17%

    28 Setembro, Quinta-feira

    Tempo Temperatura Precipitação Vento Pressão Humidade
    00:00 +27°C° 0 mm 2 m/s 708 mmHg 17%
    01:00 +27°C° 0 mm 2 m/s 707 mmHg 17%
    02:00 +26°C° 0 mm 2 m/s 707 mmHg 17%
    03:00 +26°C° 0 mm 2 m/s 707 mmHg 18%
    04:00 +25°C° 0 mm 2 m/s 706 mmHg 18%
    05:00 +25°C° 0 mm 2 m/s 706 mmHg 18%
    06:00 +26°C° 0 mm 2 m/s 707 mmHg 17%
    07:00 +28°C° 0 mm 2 m/s 707 mmHg 15%
    08:00 +30°C° 0 mm 2 m/s 708 mmHg 13%
    09:00 +31°C° 0 mm 1 m/s 708 mmHg 12%
    10:00 +33°C° 0 mm 1 m/s 708 mmHg 11%
    11:00 +34°C° 0 mm 1 m/s 708 mmHg 9%
    12:00 +35°C° 0 mm 1 m/s 707 mmHg 9%
    13:00 +37°C° 0 mm 2 m/s 707 mmHg 9%
    14:00 +37°C° 0 mm 2 m/s 706 mmHg 8%
    15:00 +37°C° 0 mm 2 m/s 706 mmHg 9%
    16:00 +37°C° 0 mm 2 m/s 706 mmHg 9%
    17:00 +36°C° 0 mm 2 m/s 706 mmHg 9%
    18:00 +34°C° 0 mm 2 m/s 706 mmHg 12%
    19:00 +31°C° 0 mm 1 m/s 707 mmHg 15%
    20:00 +29°C° 0 mm 1 m/s 707 mmHg 18%
    21:00 +28°C° 0 mm 1 m/s 707 mmHg 19%
    22:00 +26°C° 0 mm 0 m/s 707 mmHg 19%
    23:00 +25°C° 0 mm 0 m/s 707 mmHg 19%

    29 Setembro, Sexta-feira

    Tempo Temperatura Precipitação Vento Pressão Humidade
    00:00 +27°C° 0 mm 1 m/s 707 mmHg 19%
    01:00 +26°C° 0 mm 1 m/s 707 mmHg 19%
    02:00 +26°C° 0 mm 1 m/s 706 mmHg 19%
    03:00 +26°C° 0 mm 1 m/s 706 mmHg 19%
    04:00 +25°C° 0 mm 1 m/s 706 mmHg 19%
    05:00 +25°C° 0 mm 2 m/s 706 mmHg 19%
    06:00 +27°C° 0 mm 2 m/s 707 mmHg 17%
    07:00 +28°C° 0 mm 2 m/s 708 mmHg 15%
    08:00 +30°C° 0 mm 2 m/s 708 mmHg 13%
    09:00 +31°C° 0 mm 2 m/s 708 mmHg 12%
    10:00 +34°C° 0 mm 2 m/s 708 mmHg 11%
    11:00 +35°C° 0 mm 2 m/s 708 mmHg 10%
    12:00 +36°C° 0 mm 2 m/s 707 mmHg 9%
    13:00 +36°C° 0 mm 2 m/s 707 mmHg 9%
    14:00 +37°C° 0 mm 2 m/s 706 mmHg 9%
    15:00 +37°C° 0 mm 2 m/s 706 mmHg 9%
    16:00 +37°C° 0 mm 2 m/s 706 mmHg 9%
    17:00 +36°C° 0 mm 2 m/s 706 mmHg 10%
    18:00 +33°C° 0 mm 1 m/s 707 mmHg 13%
    19:00 +31°C° 0 mm 1 m/s 707 mmHg 16%
    20:00 +29°C° 0 mm 1 m/s 707 mmHg 19%
    21:00 +29°C° 0 mm 1 m/s 708 mmHg 19%
    22:00 +28°C° 0 mm 1 m/s 708 mmHg 19%
    23:00 +28°C° 0 mm 2 m/s 708 mmHg 19%

    30 Setembro, Sábado

    Tempo Temperatura Precipitação Vento Pressão Humidade
    00:00 +27°C° 0 mm 2 m/s 708 mmHg 19%
    01:00 +26°C° 0 mm 2 m/s 708 mmHg 19%
    02:00 +26°C° 0 mm 2 m/s 707 mmHg 19%
    03:00 +25°C° 0 mm 2 m/s 708 mmHg 19%
    04:00 +25°C° 0 mm 2 m/s 708 mmHg 19%
    05:00 +25°C° 0 mm 2 m/s 708 mmHg 19%
    06:00 +26°C° 0 mm 2 m/s 708 mmHg 17%
    07:00 +28°C° 0 mm 2 m/s 709 mmHg 15%
    08:00 +29°C° 0 mm 2 m/s 710 mmHg 13%
    09:00 +31°C° 0 mm 2 m/s 710 mmHg 12%
    10:00 +32°C° 0 mm 2 m/s 710 mmHg 10%
    11:00 +35°C° 0 mm 2 m/s 710 mmHg 9%
    12:00 +35°C° 0 mm 2 m/s 709 mmHg 9%
    13:00 +36°C° 0 mm 2 m/s 709 mmHg 8%
    14:00 +37°C° 0 mm 2 m/s 708 mmHg 8%
    15:00 +36°C° 0 mm 2 m/s 708 mmHg 8%
    16:00 +36°C° 0 mm 2 m/s 708 mmHg 8%
    17:00 +36°C° 0 mm 2 m/s 708 mmHg 9%
    18:00 +33°C° 0 mm 1 m/s 708 mmHg 12%
    19:00 +31°C° 0 mm 1 m/s 708 mmHg 15%
    20:00 +26°C° 0 mm 0 m/s 709 mmHg 18%
    21:00 +28°C° 0 mm 1 m/s 709 mmHg 18%
    22:00 +28°C° 0 mm 1 m/s 709 mmHg 17%
    23:00 +27°C° 0 mm 1 m/s 709 mmHg 17%
    Mostrar mais